User: anonymous   Login
Location: Unspecified
(0.0000°N, 0.0000°E)
Time: 03:17:23
(UTC+00:00)
Language:

MOZHAYETS 4 - Orbit

View from above orbital plane
View from above orbital plane
View from above satellite
View from above satellite

Ground track
Ground track

The orbit is defined by the following mean orbital elements,

1 27939U          26106.97425943 +.00000000 +00000-0 +16452-3 0 00002
2 27939  98.3459 289.6087 0012531 101.5368  51.2611 14.73356919    00
Epoch (UTC): 16 April 2026 23:22:56
Eccentricity: 0.0012531
inclination: 98.3459°
perigee height: 642 km
apogee height: 659 km
right ascension of ascending node: 289.6087°
argument of perigee: 101.5368°
revolutions per day: 14.73356919
mean anomaly at epoch: 51.2611°

The dashed part of the orbit path shows where the satellite is in the earth's shadow,  

DLR